Time,TemperatureF,DewpointF,PressureIn,WindDirection,WindDirectionDegrees,WindSpeedMPH,WindSpeedGustMPH,Humidity,HourlyPrecipIn,Conditions,Clouds,dailyrainin,SoftwareType,DateUTC
2013-03-06 00:01:00,49.0,47.0,29.28,ESE,103,5.0,8.0,94,0.00,,,0.00,,2013-03-06 05:01:00,
2013-03-06 00:11:00,49.0,47.0,29.28,ESE,117,4.0,7.0,93,0.00,,,0.00,,2013-03-06 05:11:00,
2013-03-06 00:22:00,49.0,47.0,29.28,ESE,117,4.0,7.0,93,0.00,,,0.00,,2013-03-06 05:22:00,
2013-03-06 00:32:00,49.0,47.0,29.28,ENE,61,3.0,8.0,93,0.00,,,0.00,,2013-03-06 05:32:00,
2013-03-06 00:42:00,49.0,47.0,29.28,ENE,61,3.0,8.0,93,0.00,,,0.00,,2013-03-06 05:42:00,
2013-03-06 00:52:00,49.0,47.0,29.28,ESE,103,4.0,9.0,93,0.00,,,0.00,,2013-03-06 05:52:00,
2013-03-06 01:01:00,49.0,47.0,29.28,SW,231,4.0,9.0,93,0.00,,,0.00,,2013-03-06 06:01:00,
2013-03-06 01:11:00,49.0,47.0,29.28,SW,231,4.0,9.0,93,0.00,,,0.00,,2013-03-06 06:11:00,
2013-03-06 01:21:00,49.0,47.0,29.28,East,91,3.0,7.0,93,0.00,,,0.00,,2013-03-06 06:21:00,
2013-03-06 01:31:00,49.0,47.0,29.28,East,98,3.0,6.0,94,0.00,,,0.00,,2013-03-06 06:31:00,
2013-03-06 01:41:00,49.0,47.0,29.28,East,98,3.0,6.0,94,0.00,,,0.00,,2013-03-06 06:41:00,
2013-03-06 01:52:00,49.0,47.0,29.28,ENE,69,1.0,3.0,94,0.00,,,0.00,,2013-03-06 06:52:00,
2013-03-06 02:01:00,49.0,47.0,29.28,ENE,70,2.0,5.0,94,0.00,,,0.00,,2013-03-06 07:01:00,
2013-03-06 02:11:00,49.0,47.0,29.28,ENE,70,2.0,5.0,94,0.00,,,0.00,,2013-03-06 07:11:00,
2013-03-06 02:21:00,49.0,47.0,29.28,East,84,1.0,3.0,94,0.00,,,0.00,,2013-03-06 07:21:00,
2013-03-06 02:31:00,49.0,48.0,29.28,NNE,31,1.0,6.0,95,0.00,,,0.00,,2013-03-06 07:31:00,
2013-03-06 02:41:00,49.0,48.0,29.28,NNE,31,1.0,6.0,95,0.00,,,0.00,,2013-03-06 07:41:00,
2013-03-06 02:52:00,49.0,48.0,29.28,NE,48,1.0,3.0,95,0.00,,,0.00,,2013-03-06 07:52:00,
2013-03-06 03:01:00,49.0,48.0,29.31,ENE,75,0.0,2.0,95,0.00,,,0.00,,2013-03-06 08:01:00,
2013-03-06 03:11:00,49.0,48.0,29.31,ENE,75,0.0,2.0,95,0.00,,,0.00,,2013-03-06 08:11:00,
2013-03-06 03:21:00,49.0,48.0,29.31,South,179,0.0,2.0,95,0.00,,,0.00,,2013-03-06 08:21:00,
2013-03-06 03:31:00,49.0,48.0,29.31,East,80,1.0,5.0,95,0.00,,,0.00,,2013-03-06 08:31:00,
2013-03-06 03:41:00,49.0,48.0,29.31,East,80,1.0,5.0,95,0.00,,,0.00,,2013-03-06 08:41:00,
2013-03-06 03:52:00,49.0,48.0,29.31,NE,38,1.0,3.0,95,0.00,,,0.00,,2013-03-06 08:52:00,
2013-03-06 04:01:00,49.0,48.0,29.31,NE,38,1.0,3.0,95,0.00,,,0.00,,2013-03-06 09:01:00,
2013-03-06 04:12:00,49.0,48.0,29.31,NE,38,1.0,3.0,95,0.00,,,0.00,,2013-03-06 09:12:00,
2013-03-06 04:21:00,49.0,48.0,29.31,ESE,114,2.0,6.0,95,0.00,,,0.00,,2013-03-06 09:21:00,
2013-03-06 04:32:00,49.0,48.0,29.31,East,81,1.0,7.0,95,0.00,,,0.00,,2013-03-06 09:32:00,
2013-03-06 04:42:00,49.0,48.0,29.31,East,81,1.0,7.0,95,0.00,,,0.00,,2013-03-06 09:42:00,
2013-03-06 04:52:00,49.0,48.0,29.31,NE,46,1.0,5.0,95,0.00,,,0.00,,2013-03-06 09:52:00,
2013-03-06 05:01:00,49.0,48.0,29.31,ESE,118,2.0,5.0,95,0.00,,,0.00,,2013-03-06 10:01:00,
2013-03-06 05:11:00,49.0,48.0,29.31,ESE,118,2.0,5.0,95,0.00,,,0.00,,2013-03-06 10:11:00,
2013-03-06 05:21:00,49.0,48.0,29.31,ENE,69,3.0,6.0,95,0.00,,,0.00,,2013-03-06 10:21:00,
2013-03-06 05:31:00,50.0,49.0,29.31,ESE,105,3.0,6.0,95,0.00,,,0.00,,2013-03-06 10:31:00,
2013-03-06 05:41:00,50.0,49.0,29.31,ESE,105,3.0,6.0,95,0.00,,,0.00,,2013-03-06 10:41:00,
2013-03-06 05:51:00,51.0,49.0,29.31,SE,137,3.0,5.0,94,0.00,,,0.00,,2013-03-06 10:51:00,
2013-03-06 06:01:00,51.0,49.0,29.31,NNE,25,4.0,7.0,93,0.00,,,0.00,,2013-03-06 11:01:00,
2013-03-06 06:11:00,51.0,49.0,29.31,NNE,25,4.0,7.0,93,0.00,,,0.00,,2013-03-06 11:11:00,
2013-03-06 06:22:00,52.0,49.0,29.31,ESE,105,2.0,6.0,89,0.00,,,0.00,,2013-03-06 11:22:00,
2013-03-06 06:31:00,53.0,49.0,29.31,ESE,113,3.0,6.0,86,0.00,,,0.00,,2013-03-06 11:31:00,
2013-03-06 06:42:00,53.0,49.0,29.31,ESE,113,3.0,6.0,86,0.00,,,0.00,,2013-03-06 11:42:00,
2013-03-06 06:52:00,53.0,48.0,29.28,East,96,5.0,8.0,83,0.00,,,0.00,,2013-03-06 11:52:00,
2013-03-06 07:01:00,54.0,48.0,29.28,ESE,109,3.0,6.0,80,0.00,,,0.00,,2013-03-06 12:01:00,
2013-03-06 07:11:00,54.0,48.0,29.28,ESE,109,3.0,6.0,80,0.00,,,0.00,,2013-03-06 12:11:00,
2013-03-06 07:21:00,54.0,46.0,29.28,SE,138,3.0,8.0,75,0.00,,,0.00,,2013-03-06 12:21:00,
2013-03-06 07:32:00,54.0,45.0,29.31,ESE,107,5.0,10.0,72,0.00,,,0.00,,2013-03-06 12:32:00,
2013-03-06 07:42:00,54.0,45.0,29.31,ESE,107,5.0,10.0,72,0.00,,,0.00,,2013-03-06 12:42:00,
2013-03-06 07:52:00,54.0,46.0,29.28,East,97,2.0,6.0,75,0.00,,,0.00,,2013-03-06 12:52:00,
2013-03-06 08:01:00,55.0,46.0,29.28,ESE,106,4.0,9.0,71,0.00,,,0.00,,2013-03-06 13:01:00,
2013-03-06 08:11:00,55.0,46.0,29.28,ESE,106,4.0,9.0,71,0.00,,,0.00,,2013-03-06 13:11:00,
2013-03-06 08:21:00,55.0,45.0,29.28,East,94,4.0,10.0,69,0.00,,,0.00,,2013-03-06 13:21:00,
2013-03-06 08:31:00,55.0,45.0,29.28,SE,132,3.0,8.0,69,0.00,,,0.00,,2013-03-06 13:31:00,
2013-03-06 08:41:00,55.0,45.0,29.28,SE,132,3.0,8.0,69,0.00,,,0.00,,2013-03-06 13:41:00,
2013-03-06 08:52:00,54.0,45.0,29.31,East,91,5.0,7.0,71,0.00,,,0.00,,2013-03-06 13:52:00,
2013-03-06 09:01:00,55.0,45.0,29.28,ESE,103,4.0,9.0,69,0.00,,,0.00,,2013-03-06 14:01:00,
2013-03-06 09:11:00,55.0,45.0,29.28,ESE,103,4.0,9.0,69,0.00,,,0.00,,2013-03-06 14:11:00,
2013-03-06 09:21:00,55.0,45.0,29.28,ESE,103,4.0,9.0,69,0.00,,,0.00,,2013-03-06 14:21:00,
2013-03-06 09:31:00,55.0,45.0,29.28,ESE,103,4.0,9.0,69,0.00,,,0.00,,2013-03-06 14:31:00,
2013-03-06 09:41:00,55.0,45.0,29.28,ESE,103,4.0,9.0,69,0.00,,,0.00,,2013-03-06 14:41:00,
2013-03-06 09:52:00,56.0,43.0,29.28,ESE,112,3.0,9.0,62,0.00,,,0.00,,2013-03-06 14:52:00,
2013-03-06 10:01:00,56.0,44.0,29.28,SE,125,5.0,9.0,63,0.00,,,0.00,,2013-03-06 15:01:00,
2013-03-06 10:11:00,56.0,44.0,29.28,SE,125,5.0,9.0,63,0.00,,,0.00,,2013-03-06 15:11:00,
2013-03-06 10:21:00,57.0,45.0,29.28,East,95,3.0,6.0,63,0.00,,,0.00,,2013-03-06 15:21:00,
2013-03-06 10:32:00,57.0,43.0,29.28,ENE,73,4.0,9.0,59,0.00,,,0.00,,2013-03-06 15:32:00,
2013-03-06 10:41:00,57.0,43.0,29.28,ENE,73,4.0,9.0,59,0.00,,,0.00,,2013-03-06 15:41:00,
2013-03-06 10:52:00,59.0,43.0,29.28,ENE,73,5.0,8.0,56,0.00,,,0.00,,2013-03-06 15:52:00,
2013-03-06 11:01:00,58.0,43.0,29.28,ESE,119,2.0,5.0,57,0.00,,,0.00,,2013-03-06 16:01:00,
2013-03-06 11:11:00,58.0,43.0,29.28,ESE,119,2.0,5.0,57,0.00,,,0.00,,2013-03-06 16:11:00,
2013-03-06 11:21:00,56.0,42.0,29.28,NE,53,2.0,5.0,59,0.00,,,0.00,,2013-03-06 16:21:00,
2013-03-06 11:32:00,55.0,42.0,29.28,ENE,70,2.0,5.0,61,0.00,,,0.00,,2013-03-06 16:32:00,
2013-03-06 11:41:00,55.0,42.0,29.28,ENE,70,2.0,5.0,61,0.00,,,0.00,,2013-03-06 16:41:00,
2013-03-06 11:52:00,53.0,43.0,29.28,SE,130,4.0,9.0,69,0.00,,,0.00,,2013-03-06 16:52:00,
2013-03-06 12:01:00,52.0,44.0,29.28,ESE,110,3.0,6.0,74,0.00,,,0.00,,2013-03-06 17:01:00,
2013-03-06 12:11:00,52.0,44.0,29.28,ESE,110,3.0,6.0,74,0.00,,,0.00,,2013-03-06 17:11:00,
2013-03-06 12:21:00,51.0,44.0,29.28,East,85,3.0,10.0,78,0.00,,,0.00,,2013-03-06 17:21:00,
2013-03-06 12:31:00,50.0,45.0,29.28,East,91,2.0,17.0,82,0.00,,,0.00,,2013-03-06 17:31:00,
2013-03-06 12:41:00,50.0,45.0,29.28,East,91,2.0,17.0,82,0.00,,,0.00,,2013-03-06 17:41:00,
2013-03-06 12:52:00,50.0,46.0,29.31,SE,134,4.0,6.0,85,0.00,,,0.00,,2013-03-06 17:52:00,
2013-03-06 13:01:00,50.0,46.0,29.28,East,81,3.0,7.0,87,0.00,,,0.00,,2013-03-06 18:01:00,
2013-03-06 13:28:00,50.0,46.0,29.28,ENE,73,4.0,9.0,87,0.00,,,0.00,,2013-03-06 18:28:00,
2013-03-06 13:41:00,50.0,47.0,29.28,ESE,114,3.0,6.0,88,0.00,,,0.00,,2013-03-06 18:41:00,
2013-03-06 13:52:00,50.0,47.0,29.28,ESE,104,5.0,8.0,88,0.00,,,0.00,,2013-03-06 18:52:00,
2013-03-06 14:01:00,49.0,46.0,29.31,East,99,3.0,7.0,89,0.00,,,0.00,,2013-03-06 19:01:00,
2013-03-06 14:11:00,49.0,46.0,29.31,East,99,3.0,7.0,89,0.00,,,0.00,,2013-03-06 19:11:00,
2013-03-06 14:21:00,50.0,47.0,29.28,ENE,73,5.0,9.0,90,0.00,,,0.00,,2013-03-06 19:21:00,
2013-03-06 14:31:00,50.0,47.0,29.28,SE,124,3.0,10.0,89,0.00,,,0.00,,2013-03-06 19:31:00,
2013-03-06 14:42:00,50.0,47.0,29.28,SE,124,3.0,10.0,89,0.00,,,0.00,,2013-03-06 19:42:00,
2013-03-06 14:52:00,50.0,47.0,29.28,SE,143,6.0,9.0,89,0.00,,,0.00,,2013-03-06 19:52:00,
2013-03-06 15:01:00,50.0,47.0,29.28,ENE,74,5.0,14.0,88,0.00,,,0.00,,2013-03-06 20:01:00,
2013-03-06 15:11:00,50.0,47.0,29.28,ENE,74,5.0,14.0,88,0.00,,,0.00,,2013-03-06 20:11:00,
2013-03-06 15:21:00,50.0,47.0,29.28,East,101,5.0,10.0,88,0.00,,,0.00,,2013-03-06 20:21:00,
2013-03-06 15:31:00,50.0,47.0,29.28,NE,50,3.0,7.0,88,0.00,,,0.00,,2013-03-06 20:31:00,
2013-03-06 15:41:00,50.0,47.0,29.28,NE,50,3.0,7.0,88,0.00,,,0.00,,2013-03-06 20:41:00,
2013-03-06 15:52:00,50.0,47.0,29.28,East,99,4.0,10.0,89,0.00,,,0.00,,2013-03-06 20:52:00,
2013-03-06 16:01:00,50.0,47.0,29.28,ESE,105,5.0,9.0,89,0.00,,,0.00,,2013-03-06 21:01:00,
2013-03-06 16:11:00,50.0,47.0,29.28,ESE,105,5.0,9.0,89,0.00,,,0.00,,2013-03-06 21:11:00,
2013-03-06 16:21:00,50.0,47.0,29.28,ESE,104,6.0,10.0,90,0.00,,,0.00,,2013-03-06 21:21:00,
2013-03-06 16:31:00,50.0,47.0,29.28,East,82,5.0,9.0,89,0.00,,,0.00,,2013-03-06 21:31:00,
2013-03-06 16:41:00,50.0,47.0,29.28,East,82,5.0,9.0,89,0.00,,,0.00,,2013-03-06 21:41:00,
2013-03-06 16:51:00,51.0,48.0,29.28,East,81,5.0,10.0,90,0.00,,,0.00,,2013-03-06 21:51:00,
2013-03-06 17:01:00,50.0,47.0,29.28,NE,53,5.0,12.0,89,0.00,,,0.00,,2013-03-06 22:01:00,
2013-03-06 17:11:00,50.0,47.0,29.28,NE,53,5.0,12.0,89,0.00,,,0.00,,2013-03-06 22:11:00,
2013-03-06 17:21:00,50.0,47.0,29.28,East,89,4.0,7.0,91,0.00,,,0.00,,2013-03-06 22:21:00,
2013-03-06 17:31:00,50.0,48.0,29.28,ENE,76,5.0,8.0,92,0.00,,,0.00,,2013-03-06 22:31:00,
2013-03-06 17:41:00,50.0,48.0,29.28,ENE,76,5.0,8.0,92,0.00,,,0.00,,2013-03-06 22:41:00,
2013-03-06 17:52:00,50.0,48.0,29.28,East,90,5.0,9.0,92,0.00,,,0.00,,2013-03-06 22:52:00,
2013-03-06 18:01:00,50.0,48.0,29.28,ESE,119,6.0,10.0,93,0.00,,,0.00,,2013-03-06 23:01:00,
2013-03-06 18:11:00,50.0,48.0,29.28,ESE,119,6.0,10.0,93,0.00,,,0.00,,2013-03-06 23:11:00,
2013-03-06 18:21:00,50.0,48.0,29.28,East,86,5.0,10.0,94,0.00,,,0.00,,2013-03-06 23:21:00,
2013-03-06 18:31:00,50.0,48.0,29.28,SE,124,5.0,12.0,94,0.00,,,0.00,,2013-03-06 23:31:00,
2013-03-06 18:41:00,50.0,49.0,29.28,ESE,106,4.0,9.0,95,0.00,,,0.00,,2013-03-06 23:41:00,
2013-03-06 18:52:00,50.0,49.0,29.28,ESE,106,4.0,9.0,95,0.00,,,0.00,,2013-03-06 23:52:00,
2013-03-06 19:01:00,50.0,49.0,29.27,NE,39,3.0,6.0,96,0.00,,,0.00,,2013-03-07 00:01:00,
2013-03-06 19:11:00,50.0,49.0,29.27,NE,39,3.0,6.0,96,0.00,,,0.00,,2013-03-07 00:11:00,
2013-03-06 19:21:00,50.0,49.0,29.25,ESE,111,3.0,8.0,96,0.00,,,0.00,,2013-03-07 00:21:00,
2013-03-06 19:31:00,50.0,49.0,29.25,ESE,107,5.0,7.0,96,0.00,,,0.00,,2013-03-07 00:31:00,
2013-03-06 19:41:00,50.0,49.0,29.25,ESE,107,5.0,7.0,96,0.00,,,0.00,,2013-03-07 00:41:00,
2013-03-06 19:52:00,50.0,49.0,29.25,ESE,113,3.0,9.0,97,0.00,,,0.00,,2013-03-07 00:52:00,
2013-03-06 20:01:00,50.0,49.0,29.25,ESE,108,3.0,12.0,97,0.00,,,0.00,,2013-03-07 01:01:00,
2013-03-06 20:11:00,50.0,49.0,29.25,ESE,108,3.0,12.0,97,0.00,,,0.00,,2013-03-07 01:11:00,
2013-03-06 20:21:00,50.0,49.0,29.25,ESE,108,5.0,12.0,98,0.00,,,0.00,,2013-03-07 01:21:00,
2013-03-06 20:31:00,50.0,49.0,29.25,SE,142,5.0,9.0,98,0.00,,,0.00,,2013-03-07 01:31:00,
2013-03-06 20:41:00,50.0,49.0,29.25,SE,142,5.0,9.0,98,0.00,,,0.00,,2013-03-07 01:41:00,
2013-03-06 20:52:00,50.0,49.0,29.22,SE,143,4.0,6.0,98,0.00,,,0.00,,2013-03-07 01:52:00,
2013-03-06 21:01:00,50.0,49.0,29.22,SE,131,4.0,7.0,98,0.00,,,0.00,,2013-03-07 02:01:00,
2013-03-06 21:11:00,50.0,49.0,29.22,SE,131,4.0,7.0,98,0.00,,,0.00,,2013-03-07 02:11:00,
2013-03-06 21:21:00,50.0,49.0,29.22,ESE,109,3.0,8.0,98,0.00,,,0.00,,2013-03-07 02:21:00,
2013-03-06 21:31:00,50.0,49.0,29.22,WSW,251,3.0,12.0,98,0.00,,,0.00,,2013-03-07 02:31:00,
2013-03-06 21:41:00,50.0,49.0,29.22,WSW,251,3.0,12.0,98,0.00,,,0.00,,2013-03-07 02:41:00,
2013-03-06 21:51:00,50.0,49.0,29.22,WSW,251,3.0,12.0,98,0.00,,,0.00,,2013-03-07 02:51:00,
2013-03-06 22:01:00,50.0,49.0,29.22,South,188,4.0,7.0,98,0.00,,,0.00,,2013-03-07 03:01:00,
2013-03-06 22:11:00,50.0,49.0,29.22,ESE,115,3.0,7.0,98,0.00,,,0.00,,2013-03-07 03:11:00,
2013-03-06 22:21:00,50.0,49.0,29.22,ESE,115,3.0,7.0,98,0.00,,,0.00,,2013-03-07 03:21:00,
2013-03-06 22:31:00,50.0,49.0,29.22,NW,323,3.0,7.0,98,0.00,,,0.00,,2013-03-07 03:31:00,
2013-03-06 22:41:00,50.0,49.0,29.22,NW,323,3.0,7.0,98,0.00,,,0.00,,2013-03-07 03:41:00,
2013-03-06 22:51:00,50.0,49.0,29.19,SE,137,4.0,8.0,98,0.00,,,0.00,,2013-03-07 03:51:00,
2013-03-06 23:01:00,50.0,49.0,29.19,East,92,4.0,8.0,98,0.00,,,0.00,,2013-03-07 04:01:00,
2013-03-06 23:11:00,50.0,49.0,29.19,East,92,4.0,8.0,98,0.00,,,0.00,,2013-03-07 04:11:00,
2013-03-06 23:21:00,50.0,49.0,29.19,ESE,117,5.0,9.0,98,0.00,,,0.00,,2013-03-07 04:21:00,
2013-03-06 23:31:00,49.0,48.0,29.19,NE,56,3.0,9.0,98,0.00,,,0.00,,2013-03-07 04:31:00,
2013-03-06 23:41:00,49.0,48.0,29.19,NE,56,3.0,9.0,98,0.00,,,0.00,,2013-03-07 04:41:00,
2013-03-06 23:52:00,49.0,48.0,29.19,East,97,5.0,8.0,98,0.00,,,0.00,,2013-03-07 04:52:00,